Flag for Germany Weather past 2 weeks in Erkrath, North Rhine-Westphalia, Germany

Now
91 °F

Sunny.


Feels Like: 89 °F
Forecast: 73 / 94 °F
Wind: 13 mph from East

Location: Duesseldorf

Current Time: Jul 1, 2015 at 7:04:40 PM

Latest Report: Jul 1, 2015 at 6:20 PM


Visibility: 10 mi

Pressure: 30.01 "Hg

Humidity: 26%

Dew point: 52 °F

Location of ErkrathLocation

Historic Weather in Erkrath — Graph

°F

Erkrath temperature yesterday

Maximum temperature yesterday: 84 °F (at 4:50 PM)
Minimum temperature yesterday: 55 °F (at 4:20 AM)
Average temperature yesterday: 70 °F

Past Weeks' High & Low Weather Summary

 TemperatureHumidityPressure
High93 °F (Jul 1, 5:20 PM)100% (Jun 18, 5:50 AM)30.30 "Hg (Jun 18, 5:50 AM)
Low43 °F (Jun 17, 3:50 AM)23% (Jul 1, 5:20 PM)29.71 "Hg (Jun 22, 5:50 PM)
Average63 °F68%30.07 "Hg
* Reported Jun 16 5:20 PM — Jul 1 5:50 PM, Erkrath, Weather by CustomWeather, © 2015

Note: Actual official high and low records may vary slightly from our data, if they occured in-between our weather recording intervals... More about our weather records

Advertising

Erkrath weather history for previous 24 hours

 ConditionsComfort  
Time TempWeatherWind HumidityBarometerVisibility
5:50 PM
Wed, Jul 1
91 °FSunny.13 mph26%30.01 "Hg10 mi
5:20 PM93 °FSunny.9 mph23%30.01 "Hg10 mi
4:50 PM91 °FSunny.12 mph26%30.01 "Hg10 mi
4:20 PM91 °FSunny.13 mph28%30.04 "Hg10 mi
3:50 PM91 °FSunny.14 mph26%30.04 "Hg10 mi
3:20 PM91 °FSunny.13 mph26%30.01 "Hg10 mi
2:50 PM90 °FSunny.13 mph29%30.04 "Hg10 mi
2:20 PM90 °FSunny.12 mph31%30.04 "Hg10 mi
1:50 PM90 °FSunny.15 mph27%30.04 "Hg10 mi
1:20 PM90 °FSunny.14 mph27%30.04 "Hg10 mi
12:50 PM88 °FSunny.14 mph31%30.07 "Hg10 mi
12:20 PM88 °FSunny.14 mph31%30.07 "Hg10 mi
11:50 AM86 °FSunny.15 mph31%30.07 "Hg10 mi
11:20 AM84 °FSunny.10 mph35%30.07 "Hg10 mi
10:50 AM84 °FSunny.12 mph37%30.07 "Hg10 mi
10:20 AM82 °FSunny.13 mph40%30.07 "Hg10 mi
9:50 AM81 °FSunny.13 mph42%30.07 "Hg10 mi
9:20 AM79 °FSunny.9 mph48%30.09 "Hg10 mi
8:50 AM77 °FSunny.9 mph51%30.09 "Hg10 mi
8:20 AM75 °FSunny.8 mph50%30.09 "Hg10 mi
7:50 AM73 °FSunny.7 mph53%30.09 "Hg10 mi
7:20 AM70 °FSunny.7 mph69%30.09 "Hg10 mi
6:50 AM64 °FSunny.7 mph78%30.09 "Hg10 mi
6:20 AM61 °FSunny.6 mph83%30.09 "Hg10 mi
5:50 AM59 °FClear.5 mph88%30.09 "Hg10 mi
5:20 AM59 °FClear.2 mph88%30.09 "Hg10 mi
4:50 AM59 °FClear.3 mph88%30.09 "Hg10 mi
4:20 AM61 °FClear.1 mph83%30.09 "Hg10 mi
3:50 AM63 °FClear.No wind73%30.09 "Hg10 mi
3:20 AM63 °FClear.2 mph73%30.09 "Hg10 mi
2:50 AM66 °FClear.1 mph64%30.09 "Hg10 mi
2:20 AM66 °FClear.3 mph64%30.09 "Hg10 mi
1:50 AM66 °FClear.7 mph64%30.09 "Hg10 mi
1:20 AM68 °FClear.6 mph56%30.09 "Hg10 mi
12:50 AM68 °FClear.6 mph56%30.09 "Hg10 mi
12:20 AM68 °FClear.8 mph56%30.09 "Hg10 mi
11:50 PM
Tue, Jun 30
70 °FClear.10 mph53%30.09 "Hg10 mi
11:20 PM72 °FClear.10 mph50%30.09 "Hg10 mi
10:50 PM73 °FSunny.8 mph47%30.09 "Hg10 mi
10:20 PM73 °FSunny.8 mph50%30.09 "Hg10 mi
9:50 PM75 °FSunny.10 mph47%30.09 "Hg10 mi
9:20 PM79 °FSunny.9 mph39%30.09 "Hg10 mi
8:50 PM79 °FSunny.10 mph37%30.09 "Hg10 mi
8:20 PM81 °FSunny.10 mph34%30.09 "Hg10 mi
7:50 PM81 °FSunny.12 mph37%30.09 "Hg10 mi
Weather by CustomWeather, © 2015

See weather overviewHow to use our weather pages